User: anonymous   Login
Location: Unspecified
(0.0000°N, 0.0000°E)
Time: 22:24:57
(UTC+00:00)
Language:

USA 229 - Orbit

View from above orbital plane
View from above orbital plane
View from above satellite
View from above satellite

Ground track
Ground track

The orbit data is extracted from the following two-line orbital elements,

1 37386U 11014A   14292.11501159 0.00000000  00000-0  00000-0 0    08
2 37386  63.4395 329.1920 0020004 158.2129 201.7871 13.40660465    00
Epoch (UTC): 19 October 2014 02:45:37
Eccentricity: 0.0020004
inclination: 63.4395°
perigee height: 1092 km
apogee height: 1122 km
right ascension of ascending node: 329.1920°
argument of perigee: 158.2129°
revolutions per day: 13.40660465
mean anomaly at epoch: 201.7871°
orbit number at epoch: 0

The dashed part of the orbit path shows where the satellite is in the earth's shadow,  

DLR